FW2346 Weather Reports


time (UTC)temp
C
wind
direction
speed
KPH
gust
KPH
rain 1hr
cm
rain 24hr
cm
rain mn
cm
humidity
%
barometer
mb
20260502223152 16 266 3.2 6.4 0.00 0.00 0.00 82 1015.5
20260502220013 16 279 0.0 8.0 0.00 0.00 0.00 80 1015.6
20260502214501 16 267 3.2 11.3 0.00 0.00 0.00 80 1015.5
20260502210024 16 214 3.2 11.3 0.00 0.00 0.00 82 1015.4
20260502184534 19 240 6.4 16.1 0.00 0.00 0.00 76 1014.5
20260502151509 21 246 3.2 14.5 0.00 0.00 0.00 71 1015.2
20260502123022 21 240 0.0 8.0 0.00 0.00 0.00 66 1016.6
20260502111508 20 125 8.0 12.9 0.00 0.00 0.00 71 1016.9
20260502091504 19 281 1.6 6.4 0.00 0.00 0.00 75 1017.5
20260502070017 16 314 1.6 4.8 0.00 0.00 0.00 81 1017.5
20260502063007 16 1 0.0 1.6 0.00 0.00 0.00 79 1017.3
20260502061502 15 6 0.0 0.0 0.00 0.00 0.00 81 1017.1
20260502060002 15 6 0.0 17.7 0.00 0.00 0.00 80 1017.0
20260502043012 16 11 0.0 0.0 0.00 0.00 0.00 77 1016.7
20260502041511 16 324 0.0 0.0 0.00 0.00 0.00 77 1016.9
20260502040007 15 324 0.0 0.0 0.00 0.00 0.00 79 1016.8
20260502034505 15 324 0.0 4.8 0.00 0.00 0.00 79 1016.8
20260502011511 16 340 0.0 0.0 0.00 0.00 0.00 76 1017.7
20260502010009 16 340 0.0 1.6 0.00 0.00 0.00 78 1017.8
20260502004504 16 340 0.0 1.6 0.00 0.00 0.00 79 1018.1
20260501231516 16 270 1.6 3.2 0.00 0.00 0.00 77 1018.8
20260501230003 16 286 1.6 4.8 0.00 0.00 0.00 76 1018.9